Location: *
(1.3500°S, 147.5000°W)
Time: 13:52:24
(UTC+00:00)

Skynet4D Del rocket - Pass Details

Date: 07 April 2020
Orbit: 763 x 1291 km, 26.9° (Epoch: 04 June)

Event Time Altitude Azimuth Distance (km) Brightness Sun altitude
Rises 04:17:10 0° 234° (SW) 3,528 7.7 -6.4°
Reaches altitude 10° 04:19:57 10° 229° (SW) 2,510 6.8 -7.1°
Maximum altitude 04:25:42 54° 153° (SSE) 970 3.9 -8.5°
Enters shadow 04:30:57 10° 76° (ENE) 2,293 5.4 -9.8°
